1339113633378,4.61076
1339113693378,4.58673
1339113753378,4.63094
1339113813378,4.59320
1339113873378,4.64916
1339113933378,4.66129
1339113993378,4.63419
1339114053378,4.60422
1339114113378,4.60856
1339114173378,4.66372
1339114233378,4.58826
1339114293378,4.61929
1339114353378,4.63902
1339114413378,4.60708
1339114473378,4.62302
1339114533378,4.62316
1339114593378,4.61985
1339114653378,4.63772
1339114713378,4.64381
1339114773378,4.65642
1339114833378,4.63500
1339114893378,4.55953
1339114953378,4.66001
1339115013378,4.63601
1339115073378,4.62905
1339115133378,4.59537
1339115193378,4.63277
1339115253378,4.61938
1339115313378,4.58650
1339115373378,4.65810
1339115433378,4.66244
1339115493378,4.61791
1339115553378,4.68541
1339115613378,4.65074
1339115673378,4.61707
1339115733378,4.68419
1339115793378,4.64075
1339115853378,4.67498
1339115913378,4.64029
1339115973378,4.61381
1339116033378,4.64826
1339116093378,4.59531
1339116153378,4.64070
1339116213378,4.62110
1339116273378,4.61702
1339116333378,4.63028
1339116393378,4.63236
1339116453378,4.62802
1339116513378,4.64639
1339116573378,4.61233
1339116633378,4.65540
1339116693378,4.64140
1339116753378,4.62187
1339116813378,4.57756
1339116873378,4.67106
1339116933378,4.59849
1339116993378,4.66057
1339117053378,4.61811
1339117113378,4.60729
1339117173378,4.61865
1339117233389,4.61089
1339117293389,4.63389
1339117353389,4.63215
1339117413389,4.60427
1339117473389,4.61105
1339117533389,4.62586
1339117593389,4.60864
1339117653389,4.61557
1339117713389,4.58597
1339117773389,4.62424
1339117833389,4.66558
1339117893389,4.62589
1339117953389,4.64137
1339118013389,4.69283
1339118073389,4.66481
1339118133389,4.64801
1339118193389,4.68163
1339118253389,4.67542
1339118313389,4.68191
1339118373389,4.66276
1339118433389,4.68570
1339118493389,4.66423
1339118553389,4.63745
1339118613389,4.68064
1339118673389,4.64363
1339118733389,4.61851
1339118793389,4.62873
1339118853389,4.63130
1339118913389,4.59439
1339118973389,4.62379
1339119033389,4.63422
1339119093389,4.61254
1339119153389,4.60659
1339119213389,4.61419
1339119273389,4.60972
1339119333389,4.60490
1339119393389,4.61485
1339119453389,4.60845
1339119513389,4.62349
1339119573389,4.60994
1339119633389,4.59995
1339119693389,4.60985
1339119753389,4.64152
1339119813389,4.61192
1339119873389,4.60426
1339119933389,4.61415
1339119993389,4.60055
1339120053389,4.60396
1339120113389,4.59133
1339120173389,4.59698
1339120233389,4.59987
1339120293389,4.58478
1339120353389,4.57265
1339120413389,4.59235
1339120473389,4.60250
1339120533389,4.57597
1339120593389,4.61116
1339120653389,4.58538
1339120713389,4.61450
1339120773389,4.64711
1339120833399,4.62452
1339120893399,4.59576
1339120953399,4.64410
1339121013399,4.62292
1339121073399,4.60615
1339121133399,4.57069
1339121193399,4.57018
1339121253399,4.59233
1339121313399,4.59868
1339121373399,4.58185
1339121433399,4.60299
1339121493399,4.56645
1339121553399,4.55892
1339121613399,4.59096
1339121673399,4.55773
1339121733399,4.55669
1339121793399,4.55947
1339121853399,4.60203
1339121913399,4.58946
1339121973399,4.58981
1339122033399,4.60212
1339122093399,4.59780
1339122153399,4.58233
1339122213399,4.55050
1339122273399,4.61244
1339122333399,4.60510
1339122393399,4.57399
1339122453399,4.57125
1339122513399,4.56718
1339122573399,4.57060
1339122633399,4.58392
1339122693399,4.56999
1339122753399,4.55999
1339122813399,4.54758
1339122873399,4.57213
1339122933399,4.56580
1339122993399,4.52764
1339123053399,4.54745
1339123113399,4.54820
1339123173399,4.58794
1339123233399,4.53535
1339123293399,4.53438
1339123353399,4.51845
1339123413399,4.54708
1339123473399,4.52547
1339123533399,4.56495
1339123593399,4.51029
1339123653399,4.58354
1339123713399,4.56387
1339123773399,4.54925
1339123833399,4.53430
1339123893399,4.55921
1339123953399,4.55628
1339124013399,4.56621
1339124073399,4.62684
1339124133399,4.62267
1339124193399,4.62911
1339124253399,4.67156
1339124313399,4.67408
1339124373399,4.67460
1339124433409,4.66262
1339124493409,4.72351
1339124553409,4.87627
1339124613409,4.94134
1339124673409,5.25449
1339124733409,5.44777
1339124793409,5.62313
1339124853409,5.56150
1339124913409,5.48481
1339124973409,5.45310
1339125033409,5.43137
1339125093409,5.41978
1339125153409,5.42360
1339125213409,5.46001
1339125273409,5.46484
1339125333409,5.47358
1339125393409,5.41402
1339125453409,5.31399
1339125513409,5.22473
1339125573409,5.18499
1339125633409,5.13165
1339125693409,5.07033
1339125753409,4.95736
1339125813409,4.95875
1339125873409,4.89932
1339125933409,4.85175
1339125993409,4.83175
1339126053409,4.81002
1339126113409,4.76635
1339126173409,4.75763
1339126233409,4.71175
1339126293409,4.68314
1339126353409,4.66022
1339126413409,4.68463
1339126473409,4.64772
1339126533409,4.63510
1339126593409,4.62937
1339126653409,4.63751
1339126713409,4.57793
1339126773409,4.62702
1339126833409,4.58847
1339126893409,4.60029
1339126953409,4.62889
1339127013409,4.55376
1339127073409,4.62167
1339127133409,4.60986
1339127193409,4.62858
1339127253409,4.54980
1339127313409,4.55777
1339127373409,4.58599
1339127433409,4.59065
1339127493409,4.56625
1339127553409,4.58341
1339127613409,4.51962
1339127673409,4.58391
1339127733409,4.55816
1339127793409,4.59138
1339127853409,4.54251
1339127913409,4.58487
1339127973409,4.56312
1339128033418,4.53586
1339128093418,4.53847
1339128153418,4.53481
1339128213418,4.52831
1339128273418,4.51432
1339128333418,4.53840
1339128393418,4.52330
1339128453418,4.52927
1339128513418,4.52046
1339128573418,4.53035
1339128633418,4.50543
1339128693418,4.53427
1339128753418,4.49113
1339128813418,4.48656
1339128873418,4.49667
1339128933418,4.49044
1339128993418,4.49175
1339129053418,4.51817
1339129113418,4.48041
1339129173418,4.50057
1339129233418,4.44780
1339129293418,4.47955
1339129353418,4.51960
1339129413418,4.47403
1339129473418,4.47766
1339129533418,4.52744
1339129593418,4.51800
1339129653418,4.47947
1339129713418,4.49178
1339129773418,4.46437
1339129833418,4.48526
1339129893418,4.50533
1339129953418,4.48212
1339130013418,4.47379
1339130073418,4.50055
1339130133418,4.49920
1339130193418,4.43023
1339130253418,4.44469
1339130313418,4.43967
1339130373418,4.46544
1339130433418,4.51547
1339130493418,4.48539
1339130553418,4.46570
1339130613418,4.45905
1339130673418,4.45425
1339130733418,4.44393
1339130793418,4.45662
1339130853418,4.45636
1339130913418,4.49323
1339130973418,4.44200
1339131033418,4.46446
1339131093418,4.46636
1339131153418,4.45951
1339131213418,4.45526
1339131273418,4.46233
1339131333418,4.44547
1339131393418,4.46403
1339131453418,4.46475
1339131513418,4.44207
1339131573418,4.43871
1339131633428,4.48607
1339131693428,4.47424
1339131753428,4.44016
1339131813428,4.47025
1339131873428,4.46734
1339131933428,4.47913
1339131993428,4.44750
1339132053428,4.47260
1339132113428,4.49589
1339132173428,4.47921
1339132233428,4.46400
1339132293428,4.44047
1339132353428,4.48174
1339132413428,4.45761
1339132473428,4.43534
1339132533428,4.46530
1339132593428,4.42879
1339132653428,4.47734
1339132713428,4.45838
1339132773428,4.45929
1339132833428,4.42089
1339132893428,4.46511
1339132953428,4.45458
1339133013428,4.45342
1339133073428,4.45911
1339133133428,4.45833
1339133193428,4.43696
1339133253428,4.45987
1339133313428,4.41474
1339133373428,4.46576
1339133433428,4.46824
1339133493428,4.51794
1339133553428,4.49044
1339133613428,4.45974
1339133673428,4.42914
1339133733428,4.47487
1339133793428,4.46008
1339133853428,4.44989
1339133913428,4.45719
1339133973428,4.47413
1339134033428,4.46993
1339134093428,4.45458
1339134153428,4.46447
1339134213428,4.45866
1339134273428,4.45501
1339134333428,4.45332
1339134393428,4.45771
1339134453428,4.44374
1339134513428,4.46544
1339134573428,4.42713
1339134633428,4.43403
1339134693428,4.43017
1339134753428,4.46203
1339134813428,4.45731
1339134873428,4.48268
1339134933428,4.41752
1339134993428,4.43542
1339135053428,4.47164
1339135113428,4.43990
1339135173428,4.44796
1339135233437,4.44750
1339135293437,4.45557
1339135353437,4.45875
1339135413437,4.42050
1339135473437,4.44303
1339135533437,4.44032
1339135593437,4.44518
1339135653437,4.45072
1339135713437,4.45034
1339135773437,4.43874
1339135833437,4.48180
1339135893437,4.47432
1339135953437,4.44804
1339136013437,4.46100
1339136073437,4.42351
1339136133437,4.45954
1339136193437,4.47161
1339136253437,4.50072
1339136313437,4.45689
1339136373437,4.50897
1339136433437,4.48569
1339136493437,4.44443
1339136553437,4.48727
1339136613437,4.45573
1339136673437,4.45734
1339136733437,4.47808
1339136793437,4.48290
1339136853437,4.45199
1339136913437,4.42271
1339136973437,4.43073
1339137033437,4.46778
1339137093437,4.43095
1339137153437,4.45486
1339137213437,4.46157
1339137273437,4.46238
1339137333437,4.46130
1339137393437,4.45880
1339137453437,4.48595
1339137513437,4.44202
1339137573437,4.43576
1339137633437,4.44835
1339137693437,4.48775
1339137753437,4.44788
1339137813437,4.45779
1339137873437,4.45508
1339137933437,4.47569
1339137993437,4.48778
1339138053437,4.44282
1339138113437,4.42907
1339138173437,4.45189
1339138233437,4.46098
1339138293437,4.45531
1339138353437,4.47196
1339138413437,4.48932
1339138473437,4.46039
1339138533437,4.46477
1339138593437,4.44676
1339138653437,4.45423
1339138713437,4.45765
1339138773437,4.47011
1339138833447,4.43825
1339138893447,4.46836
1339138953447,4.47331
1339139013447,4.48118
1339139073447,4.45503
1339139133447,4.45719
1339139193447,4.46301
1339139253447,4.43943
1339139313447,4.45887
1339139373447,4.45471
1339139433447,4.41842
1339139493447,4.48300
1339139553447,4.47134
1339139613447,4.50675
1339139673447,4.51825
1339139733447,4.86890
1339139793447,5.11872
1339139853447,4.86176
1339139913447,4.67589
1339139973447,4.58290
1339140033447,4.57713
1339140093447,4.56461
1339140153447,4.53449
1339140213447,4.51110
1339140273447,4.48598
1339140333447,4.47971
1339140393447,4.46060
1339140453447,4.44128
1339140513447,4.45847
1339140573447,4.48260
1339140633447,4.47485
1339140693447,4.47443
1339140753447,4.47931
1339140813447,4.49012
1339140873447,4.46443
1339140933447,4.44067
1339140993447,4.45517
1339141053447,4.45545
1339141113447,4.47708
1339141173447,4.42758
1339141233447,4.43848
1339141293447,4.45628
1339141353447,4.41866
1339141413447,4.47194
1339141473447,4.45976
1339141533447,4.45653
1339141593447,4.42752
1339141653447,4.42958
1339141713447,4.44454
1339141773447,4.47007
1339141833447,4.46349
1339141893447,4.44864
1339141953447,4.43988
1339142013447,4.48488
1339142073447,4.44336
1339142133447,4.45656
1339142193447,4.45287
1339142253447,4.48616
1339142313447,4.49798
1339142373447,4.43276
1339142433456,4.44640
1339142493456,4.44701
1339142553456,4.45248
1339142613456,4.41902
1339142673456,4.42900
1339142733456,4.46397
1339142793456,4.46479
1339142853456,4.45335
1339142913456,4.45580
1339142973456,4.44405
1339143033456,4.45615
1339143093456,4.47496
1339143153456,4.45530
1339143213456,4.47834
1339143273456,4.46901
1339143333456,4.44910
1339143393456,4.46969
1339143453456,4.46482
1339143513456,4.47457
1339143573456,4.44708
1339143633456,4.47517
1339143693456,4.44682
1339143753456,4.41702
1339143813456,4.44998
1339143873456,4.47954
1339143933456,4.42958
1339143993456,4.44791
1339144053456,4.44706
1339144113456,4.46941
1339144173456,4.47354
1339144233456,4.44389
1339144293456,4.43044
1339144353456,4.46927
1339144413456,4.45049
1339144473456,4.46566
1339144533456,4.45527
1339144593456,4.47595
1339144653456,4.47659
1339144713456,4.47048
1339144773456,4.46137
1339144833456,4.46470
1339144893456,4.45696
1339144953456,4.45370
1339145013456,4.48504
1339145073456,4.49382
1339145133456,4.44195
1339145193456,4.47779
1339145253456,4.44638
1339145313456,4.47751
1339145373456,4.45624
1339145433456,4.45010
1339145493456,4.47758
1339145553456,4.43901
1339145613456,4.45160
1339145673456,4.46040
1339145733456,4.46827
1339145793456,4.48169
1339145853456,4.47765
1339145913456,4.46453
1339145973456,4.46273
1339146033465,4.47697
1339146093465,4.48568
1339146153465,4.47363
1339146213465,4.50607
1339146273465,4.46467
1339146333465,4.48246
1339146393465,4.45483
1339146453465,4.45064
1339146513465,4.49165
1339146573465,4.44738
1339146633465,4.46682
1339146693465,4.44463
1339146753465,4.46040
1339146813465,4.48820
1339146873465,4.48694
1339146933465,4.46797
1339146993465,4.45620
1339147053465,4.47847
1339147113465,4.49776
1339147173465,4.46232
1339147233465,4.47841
1339147293465,4.46479
1339147353465,4.48311
1339147413465,4.46666
1339147473465,4.48167
1339147533465,4.48708
1339147593465,4.43999
1339147653465,4.47876
1339147713465,4.46877
1339147773465,4.47740
1339147833465,4.50037
1339147893465,4.50979
1339147953465,4.48287
1339148013465,4.47674
1339148073465,4.45864
1339148133465,4.46637
1339148193465,4.46291
1339148253465,4.52531
1339148313465,4.46380
1339148373465,4.46762
1339148433465,4.48394
1339148493465,4.46315
1339148553465,4.49718
1339148613465,4.50020
1339148673465,4.46260
1339148733465,4.46540
1339148793465,4.45010
1339148853465,4.47162
1339148913465,4.47725
1339148973465,4.47397
1339149033465,4.47161
1339149093465,4.49861
1339149153465,4.49257
1339149213465,4.49025
1339149273465,4.48638
1339149333465,4.44858
1339149393465,4.48420
1339149453465,4.47510
1339149513465,4.47247
1339149573465,4.45697
1339149633474,4.50091
1339149693474,4.45518
1339149753474,4.46384
1339149813474,4.47819
1339149873474,4.48308
1339149933474,4.48795
1339149993474,4.51498
1339150053474,4.48365
1339150113474,4.43199
1339150173474,4.44819
1339150233474,4.48719
1339150293474,4.47762
1339150353474,4.49148
1339150413474,4.49386
1339150473474,4.45745
1339150533474,4.48583
1339150593474,4.50089
1339150653474,4.49958
1339150713474,4.49977
1339150773474,4.45849
1339150833474,4.49286
1339150893474,4.49618
1339150953474,4.50920
1339151013474,4.48330
1339151073474,4.47176
1339151133474,4.46349
1339151193474,4.47253
1339151253474,4.45516
1339151313474,4.48270
1339151373474,4.52317
1339151433474,4.49173
1339151493474,4.49257
1339151553474,4.48518
1339151613474,4.49638
1339151673474,4.47893
1339151733474,4.50756
1339151793474,4.49917
1339151853474,4.52683
1339151913474,4.48161
1339151973474,4.50245
1339152033474,4.49813
1339152093474,4.49330
1339152153474,4.48280
1339152213474,4.51097
1339152273474,4.50204
1339152333474,4.49830
1339152393474,4.45965
1339152453474,4.49204
1339152513474,4.49783
1339152573474,4.47395
1339152633474,4.48769
1339152693474,4.52001
1339152753474,4.47361
1339152813474,4.50007
1339152873474,4.50557
1339152933474,4.52518
1339152993474,4.47799
1339153053474,4.51296
1339153113474,4.49133
1339153173474,4.51743
1339153233483,4.53396
1339153293483,4.51998
1339153353483,4.47451
1339153413483,4.49536
1339153473483,4.49554
1339153533483,4.48068
1339153593483,4.50007
1339153653483,4.48877
1339153713483,4.49934
1339153773483,4.46150
1339153833483,4.49284
1339153893483,4.45885
1339153953483,4.47705
1339154013483,4.47420
1339154073483,4.53405
1339154133483,4.48120
1339154193483,4.50657
1339154253483,4.50235
1339154313483,4.52225
1339154373483,4.50769
1339154433483,4.50004
1339154493483,4.50364
1339154553483,4.52321
1339154613483,4.53083
1339154673483,4.50322
1339154733483,4.50337
1339154793483,4.53212
1339154853483,4.49829
1339154913483,4.48767
1339154973483,4.52882
1339155033483,4.47423
1339155093483,4.48804
1339155153483,4.49034
1339155213483,4.51256
1339155273483,4.48734
1339155333483,4.49223
1339155393483,4.50167
1339155453483,4.47377
1339155513483,4.48254
1339155573483,4.51722
1339155633483,4.48350
1339155693483,4.51816
1339155753483,4.51750
1339155813483,4.52660
1339155873483,4.50495
1339155933483,4.49287
1339155993483,4.48895
1339156053483,4.49558
1339156113483,4.50739
1339156173483,4.50754
1339156233483,4.49824
1339156293483,4.51543
1339156353483,4.50834
1339156413483,4.49446
1339156473483,4.50607
1339156533483,4.47194
1339156593483,4.48297
1339156653483,4.48313
1339156713483,4.48476
1339156773483,4.50479
1339156833493,4.49196
1339156893493,4.51596
1339156953493,4.49058
1339157013493,4.49355
1339157073493,4.48778
1339157133493,4.47433
1339157193493,4.48931
1339157253493,4.48769
1339157313493,4.49269
1339157373493,4.51268
1339157433493,4.54827
1339157493493,4.52531
1339157553493,4.54430
1339157613493,4.53591
1339157673493,4.48698
1339157733493,4.49805
1339157793493,4.51352
1339157853493,4.48356
1339157913493,4.48629
1339157973493,4.50253
1339158033493,4.52027
1339158093493,4.51793
1339158153493,4.47261
1339158213493,4.51539
1339158273493,4.53807
1339158333493,4.52729
1339158393493,4.49368
1339158453493,4.50469
1339158513493,4.52016
1339158573493,4.51772
1339158633493,4.56191
1339158693493,4.48542
1339158753493,4.50464
1339158813493,4.51654
1339158873493,4.47588
1339158933493,4.53337
1339158993493,4.55160
1339159053493,4.52195
1339159113493,4.52399
1339159173493,4.52123
1339159233493,4.49228
1339159293493,4.52831
1339159353493,4.55361
1339159413493,4.53748
1339159473493,4.52894
1339159533493,4.53488
1339159593493,4.49626
1339159653493,4.48918
1339159713493,4.55841
1339159773493,4.53658
1339159833493,4.51383
1339159893493,4.54989
1339159953493,4.53765
1339160013493,4.51749
1339160073493,4.54654
1339160133493,4.52607
1339160193493,4.50991
1339160253493,4.54397
1339160313493,4.53485
1339160373493,4.52005
1339160433502,4.52022
1339160493502,4.54701
1339160553502,4.51907
1339160613502,4.54824
1339160673502,4.51355
1339160733502,4.51879
1339160793502,4.55280
1339160853502,4.52613
1339160913502,4.52738
1339160973502,4.52883
1339161033502,4.52995
1339161093502,4.50355
1339161153502,4.54152
1339161213502,4.52838
1339161273502,4.57993
1339161333502,4.49560
1339161393502,4.53139
1339161453502,4.52763
1339161513502,4.50877
1339161573502,4.54463
1339161633502,4.55058
1339161693502,4.53251
1339161753502,4.50244
1339161813502,4.49857
1339161873502,4.52995
1339161933502,4.48304
1339161993502,4.54104
1339162053502,4.49789
1339162113502,4.54246
1339162173502,4.56275
1339162233502,4.52674
1339162293502,4.51926
1339162353502,4.52368
1339162413502,4.53564
1339162473502,4.56726
1339162533502,4.55463
1339162593502,4.57282
1339162653502,4.51324
1339162713502,4.54397
1339162773502,4.53829
1339162833502,4.52537
1339162893502,4.55434
1339162953502,4.55285
1339163013502,4.49843
1339163073502,4.56681
1339163133502,4.53340
1339163193502,4.53245
1339163253502,4.53914
1339163313502,4.54760
1339163373502,4.54711
1339163433502,4.54418
1339163493502,4.57123
1339163553502,4.54474
1339163613502,4.54694
1339163673502,4.55052
1339163733502,4.53777
1339163793502,4.55262
1339163853502,4.56438
1339163913502,4.57081
1339163973502,4.54874
1339164033511,4.54327
1339164093511,4.58081
1339164153511,4.51912
1339164213511,4.57760
1339164273511,4.63466
1339164333511,4.57674
1339164393511,4.54042
1339164453511,4.56570
1339164513511,4.52528
1339164573511,4.53535
1339164633511,4.53913
1339164693511,4.57313
1339164753511,4.56386
1339164813511,4.53148
1339164873511,4.51655
1339164933511,4.52769
1339164993511,4.53026
1339165053511,4.57111
1339165113511,4.57009
1339165173511,4.60671
1339165233511,4.53604
1339165293511,4.53567
1339165353511,4.55210
1339165413511,4.54087
1339165473511,4.54270
1339165533511,4.55842
1339165593511,4.53184
1339165653511,4.53574
1339165713511,4.55491
1339165773511,4.52293
1339165833511,4.55267
1339165893511,4.56398
1339165953511,4.55062
1339166013511,4.52803
1339166073511,4.57142
1339166133511,4.56353
1339166193511,4.54695
1339166253511,4.56287
1339166313511,4.59132
1339166373511,4.55309
1339166433511,4.57843
1339166493511,4.55535
1339166553511,4.56404
1339166613511,4.58710
1339166673511,4.59437
1339166733511,4.57558
1339166793511,4.53320
1339166853511,4.53007
1339166913511,4.54616
1339166973511,4.59188
1339167033511,4.56582
1339167093511,4.58992
1339167153511,4.56932
1339167213511,4.56616
1339167273511,4.59802
1339167333511,4.54949
1339167393511,4.51321
1339167453511,4.56490
1339167513511,4.57318
1339167573511,4.54851
1339167633520,4.55568
1339167693520,4.58668
1339167753520,4.56818
1339167813520,4.54575
1339167873520,4.55771
1339167933520,4.56136
1339167993520,4.58740
1339168053520,4.53704
1339168113520,4.54932
1339168173520,4.57793
1339168233520,4.56514
1339168293520,4.56465
1339168353520,4.55888
1339168413520,4.57651
1339168473520,4.56131
1339168533520,4.58861
1339168593520,4.55486
1339168653520,4.54879
1339168713520,4.57152
1339168773520,4.52844
1339168833520,4.53865
1339168893520,4.51297
1339168953520,4.57757
1339169013520,4.56817
1339169073520,4.53203
1339169133520,4.56534
1339169193520,4.54303
1339169253520,4.53341
1339169313520,4.56177
1339169373520,4.56234
1339169433520,4.57796
1339169493520,4.56412
1339169553520,4.59372
1339169613520,4.55896
1339169673520,4.55802
1339169733520,4.55361
1339169793520,4.55621
1339169853520,4.52682
1339169913520,4.55843
1339169973520,4.55559
1339170033520,4.58096
1339170093520,4.56051
1339170153520,4.54213
1339170213520,4.55948
1339170273520,4.55000
1339170333520,4.50282
1339170393520,4.56594
1339170453520,4.57173
1339170513520,4.56688
1339170573520,4.57228
1339170633520,4.59237
1339170693520,4.57192
1339170753520,4.57220
1339170813520,4.55297
1339170873520,4.59332
1339170933520,4.57485
1339170993520,4.51496
1339171053520,4.55086
1339171113520,4.58379
1339171173520,4.57673
1339171233530,4.54174
1339171293530,4.52453
1339171353530,4.54881
1339171413530,4.54233
1339171473530,4.54781
1339171533530,4.55465
1339171593530,4.53693
1339171653530,4.59938
1339171713530,4.57214
1339171773530,4.54623
1339171833530,4.55463
1339171893530,4.56023
1339171953530,4.49947
1339172013530,4.55995
1339172073530,4.59951
1339172133530,4.55090
1339172193530,4.53584
1339172253530,4.56728
1339172313530,4.57020
1339172373530,4.55991
1339172433530,4.55411
1339172493530,4.58287
1339172553530,4.58398
1339172613530,4.57894
1339172673530,4.61196
1339172733530,4.54566
1339172793530,4.56370
1339172853530,4.53441
1339172913530,4.53901
1339172973530,4.55674
1339173033530,4.56464
1339173093530,4.56202
1339173153530,4.52693
1339173213530,4.57936
1339173273530,4.55417
1339173333530,4.56022
1339173393530,4.56807
1339173453530,4.55856
1339173513530,4.55377
1339173573530,4.59073
1339173633530,4.52257
1339173693530,4.55386
1339173753530,4.56081
1339173813530,4.55566
1339173873530,4.58031
1339173933530,4.56251
1339173993530,4.51620
1339174053530,4.55493
1339174113530,4.52786
1339174173530,4.52740
1339174233530,4.56898
1339174293530,4.57541
1339174353530,4.52455
1339174413530,4.53619
1339174473530,4.55164
1339174533530,4.57407
1339174593530,4.54247
1339174653530,4.54374
1339174713530,4.58267
1339174773530,4.51444
1339174833539,4.55540
1339174893539,4.55020
1339174953539,4.55306
1339175013539,4.56034
1339175073539,4.53089
1339175133539,4.53380
1339175193539,4.59844
1339175253539,4.54763
1339175313539,4.56856
1339175373539,4.56763
1339175433539,4.56177
1339175493539,4.60712
1339175553539,4.58902
1339175613539,4.60484
1339175673539,4.59668
1339175733539,4.58141
1339175793539,4.59961
1339175853539,4.55385
1339175913539,4.59642
1339175973539,4.56415
1339176033539,4.56146
1339176093539,4.56728
1339176153539,4.61273
1339176213539,4.64466
1339176273539,4.60868
1339176333539,4.62945
1339176393539,4.62643
1339176453539,4.61066
1339176513539,4.58681
1339176573539,4.61177
1339176633539,4.61441
1339176693539,4.66182
1339176753539,4.61565
1339176813539,4.59942
1339176873539,4.63321
1339176933539,4.58530
1339176993539,4.58476
1339177053539,4.63396
1339177113539,4.56463
1339177173539,4.56678
1339177233539,4.58911
1339177293539,4.61662
1339177353539,4.58094
1339177413539,4.58122
1339177473539,4.60790
1339177533539,4.60448
1339177593539,4.55568
1339177653539,4.61764
1339177713539,4.53594
1339177773539,4.55602
1339177833539,4.57400
1339177893539,4.54479
1339177953539,4.58388
1339178013539,4.58504
1339178073539,4.56669
1339178133539,4.52914
1339178193539,4.58341
1339178253539,4.53997
1339178313539,4.55857
1339178373539,4.55455
1339178433549,4.56445
1339178493549,4.52630
1339178553549,4.57439
1339178613549,4.55562
1339178673549,4.53658
1339178733549,4.53550
1339178793549,4.54354
1339178853549,4.56167
1339178913549,4.53629
1339178973549,4.51187